Location: Maccacari
(45.1333°N, 11.1333°E)
Time: 00:06:44
(UTC+00:00)

A-11 Canister half - Pass Details

Date: 25 January 2021
Orbit: 1525 x 1684 km, 47.3° (Epoch: 07 March)

Event Time Altitude Azimuth Distance (km) Brightness Sun altitude
Rises 14:04:33 0° 239° (WSW) 4,668 12.9 16.8°
Reaches altitude 10° 14:07:34 10° 238° (WSW) 3,693 12.7 16.5°
Maximum altitude 14:16:51 77° 155° (SSE) 1,590 9.5 15.4°
Drops below altitude 10° 14:26:26 10° 71° (ENE) 3,796 10.6 14.3°
Sets 14:29:34 0° 71° (ENE) 4,804 11.1 13.9°
